STARLINK-2688

decayed
NORAD ID: 48660 Int'l Des: 2021-044 Owner: SPXS Country: US Constellation: starlink
LEOCIRCULAR

关于 STARLINK-2688

正在加载描述...

高度历史

Altitude vs Time

uPlot chart will show altitude changes over time

两行轨道根数

1 48660U 21044Y 25007.60727928 .07105979 12169-4 11653-2 0 9999
2 48660 53.0381 214.4578 0003867 279.1268 177.6883 16.32695150200602
Epoch: Jan 7, 2025 • Age: 6080 hours

当前状态

Position data unavailable
发射日期 May 26, 2021
运行时间 4.3 years
衰减日期 Jan 7, 2025
类型 internet

技术详情

分类 Payload
质量 260.00 kg
干质量 248.00 kg
总质量 260.00 kg
长度 0.20 m
直径 2.80 m
跨度 9.00 m
形状 Box + pan
制造商 SPXS
平台类型 Starlink
阶段状态 Unknown Transfer Status
所有者/国家 SPXS/US

大型星座

Loading constellations...